EN

Hourly Weather Alvaneu

Today, 23 January, Saturday

Time Temperature Precipitation Wind Pressure Humidity
00:00 +1°C° 0.6 mm 2 mps 640 mmHg 96%
01:00 +1°C° 0.6 mm 2 mps 640 mmHg 97%
02:00 +1°C° 1.2 mm 2 mps 640 mmHg 96%
03:00 -1°C° 1.2 mm 3 mps 641 mmHg 96%
04:00 -1°C° 1.2 mm 3 mps 641 mmHg 96%
05:00 -2°C° 0.4 mm 3 mps 641 mmHg 96%
06:00 -4°C° 0.4 mm 3 mps 642 mmHg 96%
07:00 -6°C° 0.4 mm 3 mps 642 mmHg 96%
08:00 -6°C° 0.1 mm 3 mps 642 mmHg 95%
09:00 -6°C° 0.1 mm 3 mps 642 mmHg 95%
10:00 -5°C° 0.1 mm 2 mps 642 mmHg 95%
11:00 -4°C° 0 mm 2 mps 642 mmHg 93%
12:00 -3°C° 0 mm 2 mps 642 mmHg 90%
13:00 -3°C° 0 mm 2 mps 642 mmHg 87%
14:00 -3°C° 0.2 mm 2 mps 642 mmHg 89%
15:00 -3°C° 0.2 mm 2 mps 642 mmHg 91%
16:00 -3°C° 0.2 mm 2 mps 642 mmHg 93%
17:00 -4°C° 0.1 mm 2 mps 641 mmHg 94%
18:00 -6°C° 0.1 mm 2 mps 641 mmHg 95%
19:00 -7°C° 0.1 mm 2 mps 641 mmHg 95%
20:00 -8°C° 0 mm 2 mps 641 mmHg 93%
21:00 -8°C° 0 mm 2 mps 641 mmHg 92%
22:00 -9°C° 0 mm 2 mps 641 mmHg 90%
23:00 -10°C° 0 mm 2 mps 641 mmHg 87%

Tomorrow, 24 January, Sunday

Time Temperature Precipitation Wind Pressure Humidity
00:00 -10°C° 0 mm 2 mps 641 mmHg 84%
01:00 -10°C° 0 mm 2 mps 641 mmHg 81%
02:00 -10°C° 0.1 mm 2 mps 641 mmHg 79%
03:00 -9°C° 0.1 mm 1 mps 641 mmHg 77%
04:00 -9°C° 0.1 mm 1 mps 641 mmHg 76%
05:00 -9°C° 0.2 mm 1 mps 642 mmHg 82%
06:00 -9°C° 0.2 mm 2 mps 642 mmHg 88%
07:00 -9°C° 0.2 mm 2 mps 643 mmHg 94%
08:00 -8°C° 0.1 mm 2 mps 643 mmHg 94%
09:00 -7°C° 0.1 mm 2 mps 644 mmHg 95%
10:00 -7°C° 0.1 mm 2 mps 645 mmHg 95%
11:00 -6°C° 0 mm 2 mps 645 mmHg 91%
12:00 -5°C° 0 mm 2 mps 645 mmHg 87%
13:00 -4°C° 0 mm 2 mps 645 mmHg 83%
14:00 -3°C° 0 mm 1 mps 644 mmHg 82%
15:00 -4°C° 0 mm 1 mps 644 mmHg 82%
16:00 -4°C° 0 mm 1 mps 644 mmHg 81%
17:00 -7°C° 0 mm 1 mps 644 mmHg 74%
18:00 -8°C° 0 mm 1 mps 644 mmHg 66%
19:00 -10°C° 0 mm 1 mps 643 mmHg 58%
20:00 -10°C° 0 mm 1 mps 644 mmHg 56%
21:00 -9°C° 0 mm 1 mps 644 mmHg 54%
22:00 -9°C° 0 mm 1 mps 644 mmHg 52%
23:00 -10°C° 0 mm 1 mps 644 mmHg 52%

Day after tomorrow, 25 January, Monday

Time Temperature Precipitation Wind Pressure Humidity
00:00 -10°C° 0 mm 1 mps 643 mmHg 53%
01:00 -11°C° 0 mm 1 mps 643 mmHg 54%
02:00 -10°C° 0.1 mm 1 mps 644 mmHg 66%
03:00 -10°C° 0.1 mm 1 mps 644 mmHg 78%
04:00 -9°C° 0.1 mm 1 mps 645 mmHg 91%
05:00 -9°C° 0.2 mm 1 mps 646 mmHg 92%
06:00 -9°C° 0.2 mm 1 mps 646 mmHg 93%
07:00 -9°C° 0.2 mm 1 mps 647 mmHg 95%
08:00 -8°C° 0.1 mm 1 mps 648 mmHg 94%
09:00 -8°C° 0.1 mm 1 mps 648 mmHg 94%
10:00 -7°C° 0.1 mm 1 mps 649 mmHg 94%
11:00 -6°C° 0.1 mm 1 mps 650 mmHg 90%
12:00 -6°C° 0.1 mm 2 mps 650 mmHg 86%
13:00 -6°C° 0.1 mm 2 mps 651 mmHg 82%
14:00 -6°C° 0.1 mm 2 mps 651 mmHg 86%
15:00 -6°C° 0.1 mm 1 mps 651 mmHg 89%
16:00 -6°C° 0.1 mm 1 mps 651 mmHg 92%
17:00 -7°C° 0.1 mm 1 mps 651 mmHg 92%
18:00 -8°C° 0.1 mm 1 mps 651 mmHg 93%
19:00 -9°C° 0.1 mm 1 mps 652 mmHg 93%
20:00 -9°C° 0.2 mm 1 mps 652 mmHg 93%
21:00 -10°C° 0.2 mm 2 mps 652 mmHg 92%
22:00 -10°C° 0.2 mm 2 mps 653 mmHg 91%
23:00 -12°C° 0.1 mm 2 mps 653 mmHg 91%

26 January, Tuesday

Time Temperature Precipitation Wind Pressure Humidity
00:00 -10°C° 0.1 mm 1 mps 653 mmHg 90%
01:00 -10°C° 0.1 mm 1 mps 653 mmHg 89%
02:00 -10°C° 0.1 mm 1 mps 653 mmHg 90%
03:00 -10°C° 0.1 mm 1 mps 653 mmHg 90%
04:00 -10°C° 0.1 mm 1 mps 654 mmHg 90%
05:00 -10°C° 0.1 mm 1 mps 654 mmHg 91%
06:00 -10°C° 0.1 mm 1 mps 654 mmHg 91%
07:00 -10°C° 0.1 mm 1 mps 654 mmHg 91%
08:00 -9°C° 0.2 mm 1 mps 655 mmHg 91%
09:00 -7°C° 0.2 mm 1 mps 655 mmHg 90%
10:00 -6°C° 0.2 mm 1 mps 656 mmHg 89%
11:00 -4°C° 0.2 mm 1 mps 656 mmHg 88%
12:00 -3°C° 0.2 mm 1 mps 656 mmHg 86%
13:00 -2°C° 0.2 mm 1 mps 656 mmHg 84%
14:00 -3°C° 0.1 mm 1 mps 656 mmHg 87%
15:00 -3°C° 0.1 mm 1 mps 656 mmHg 89%
16:00 -3°C° 0.1 mm 1 mps 655 mmHg 92%
17:00 -6°C° 0 mm 1 mps 655 mmHg 91%
18:00 -7°C° 0 mm 1 mps 655 mmHg 90%
19:00 -9°C° 0 mm 2 mps 655 mmHg 89%
20:00 -7°C° 0 mm 1 mps 655 mmHg 84%
21:00 -7°C° 0 mm 1 mps 656 mmHg 78%
22:00 -6°C° 0 mm 1 mps 656 mmHg 73%
23:00 -6°C° 0.1 mm 1 mps 656 mmHg 76%

27 January, Wednesday

Time Temperature Precipitation Wind Pressure Humidity
00:00 -4°C° 0.1 mm 1 mps 656 mmHg 78%
01:00 -4°C° 0.1 mm 1 mps 655 mmHg 81%
02:00 -3°C° 0.4 mm 1 mps 655 mmHg 85%
03:00 -3°C° 0.4 mm 1 mps 655 mmHg 89%
04:00 -3°C° 0.4 mm 1 mps 654 mmHg 93%
05:00 -2°C° 1.1 mm 1 mps 654 mmHg 94%
06:00 -1°C° 1.1 mm 1 mps 654 mmHg 95%
07:00 -1°C° 1.1 mm 1 mps 655 mmHg 96%
08:00 -2°C° 1.8 mm 2 mps 655 mmHg 95%
09:00 -1°C° 1.8 mm 3 mps 656 mmHg 94%
10:00 -1°C° 1.8 mm 3 mps 656 mmHg 93%
11:00 -1°C° 0.6 mm 3 mps 656 mmHg 92%
12:00 0°C° 0.6 mm 3 mps 656 mmHg 91%
13:00 0°C° 0.6 mm 3 mps 657 mmHg 90%
14:00 0°C° 0.3 mm 3 mps 657 mmHg 91%
15:00 -1°C° 0.3 mm 3 mps 657 mmHg 92%
16:00 -1°C° 0.3 mm 3 mps 657 mmHg 94%
17:00 -2°C° 0.1 mm 2 mps 657 mmHg 94%
18:00 -4°C° 0.1 mm 2 mps 657 mmHg 95%
19:00 -5°C° 0.1 mm 2 mps 658 mmHg 96%
20:00 -5°C° 0 mm 2 mps 658 mmHg 95%
21:00 -6°C° 0 mm 2 mps 658 mmHg 94%
22:00 -6°C° 0 mm 2 mps 658 mmHg 93%
23:00 -6°C° 0 mm 2 mps 658 mmHg 84%

28 January, Thursday

Time Temperature Precipitation Wind Pressure Humidity
00:00 -6°C° 0 mm 2 mps 657 mmHg 76%
01:00 -6°C° 0 mm 2 mps 657 mmHg 68%
02:00 -6°C° 0 mm 2 mps 657 mmHg 62%
03:00 -5°C° 0 mm 2 mps 657 mmHg 56%
04:00 -4°C° 0 mm 2 mps 657 mmHg 50%
05:00 -3°C° 0.1 mm 2 mps 657 mmHg 56%
06:00 -2°C° 0.1 mm 2 mps 657 mmHg 61%
07:00 0°C° 0.1 mm 1 mps 657 mmHg 66%
08:00 +2°C° 0.3 mm 1 mps 657 mmHg 73%
09:00 +3°C° 0.3 mm 1 mps 657 mmHg 80%
10:00 +4°C° 0.3 mm 1 mps 657 mmHg 88%
11:00 +4°C° 0.1 mm 1 mps 657 mmHg 91%
12:00 +5°C° 0.1 mm 1 mps 657 mmHg 95%
13:00 +5°C° 0.1 mm 1 mps 657 mmHg 98%
14:00 +5°C° 0 mm 1 mps 656 mmHg 98%
15:00 +5°C° 0 mm 1 mps 656 mmHg 98%
16:00 +5°C° 0 mm 1 mps 656 mmHg 97%
17:00 +5°C° 0.6 mm 1 mps 656 mmHg 97%
18:00 +3°C° 0.6 mm 2 mps 656 mmHg 97%
19:00 +3°C° 0.6 mm 2 mps 656 mmHg 97%
Show more